This demonstration page uses our WeatherBlox Daily Observations layout. Learn more.

Left ArrowRight Arrow

39.01783, -85.05884

Hourly Observations for June 21, 2017

Temp ( °F °C ) Dew Point ( °F °C ) Humidity (%) Winds ( mph kmh ) Pressure ( in mb ) Visibility ( mi km ) Precip ( " mm )
12:52 am 00:52 Mostly Cloudy 69 20.6 57 13.9 66 66 SSW 7 11 29.95 1014 10 16 N/A
1:52 am 01:52 Mostly Cloudy 69 20.6 57 13.9 66 66 NNW 6 9 29.96 1015 10 16 N/A
2:52 am 02:52 Mostly Cloudy 68 20 57 13.9 68 68 N 3 6 29.96 1015 10 16 N/A
3:52 am 03:52 Mostly Cloudy 65 18.3 58 14.4 78 78 S 7 11 29.95 1014 10 16 N/A
4:52 am 04:52 Partly Cloudy 65 18.3 58 14.4 78 78 S 9 15 29.94 1014 10 16 N/A
5:52 am 05:52 Partly Cloudy 65 18.3 58 14.4 78 78 SSW 8 13 29.94 1014 10 16 N/A
6:52 am 06:52 Mostly Cloudy 67 19.4 59 15 76 76 SSW 9 15 29.96 1015 10 16 N/A
7:52 am 07:52 Cloudy 69 20.6 59 15 70 70 SSW 7 11 29.97 1015 10 16 N/A
8:52 am 08:52 Mostly Cloudy 71 21.7 61 16.1 71 71 VRB 3 6 29.98 1015 10 16 N/A
9:52 am 09:52 Mostly Sunny 75 23.9 62 16.7 64 64 SW 5 7 29.98 1015 10 16 N/A
10:52 am 10:52 Mostly Sunny 80 26.7 64 17.8 58 58 SSW 9 15 29.97 1015 10 16 N/A
11:52 am 11:52 Sunny 82 27.8 63 17.2 53 53 SW 13 20 29.96 1015 10 16 N/A
12:52 pm 12:52 Mostly Sunny 84 28.9 62 16.7 48 48 SSW 15 24 29.96 1015 10 16 N/A
1:52 pm 13:52 Mostly Sunny 86 30 63 17.2 46 46 WSW 14 22 29.95 1014 10 16 N/A
2:52 pm 14:52 Mostly Sunny 88 31.1 64 17.8 45 45 WSW 13 20 29.93 1014 10 16 N/A
3:52 pm 15:52 Partly Cloudy 88 31.1 64 17.8 45 45 WSW 12 19 29.93 1014 10 16 N/A
4:52 pm 16:52 Mostly Cloudy 85 29.4 64 17.8 50 50 SW 9 15 29.93 1014 10 16 N/A
5:52 pm 17:52 Mostly Cloudy 87 30.6 67 19.4 51 51 VRB 7 11 29.93 1013 10 16 N/A
6:52 pm 18:52 Mostly Cloudy 84 28.9 67 19.4 57 57 SSW 8 13 29.92 1013 10 16 N/A
7:52 pm 19:52 Cloudy 77 25 68 20 74 74 E 6 9 29.93 1014 10 16 0.18 4.57
8:52 pm 20:52 Mostly Cloudy 79 26.1 68 20 69 69 WSW 5 7 29.94 1014 10 16 N/A
9:52 pm 21:52 Mostly Cloudy 76 24.4 69 20.6 79 79 SSW 3 6 29.94 1014 10 16 N/A
10:52 pm 22:52 Mostly Cloudy 75 23.9 68 20 79 79 SSW 7 11 29.95 1014 10 16 N/A
11:52 pm 23:52 Mostly Cloudy 75 23.9 67 19.4 76 76 SSW 8 13 29.96 1015 10 16 N/A

Powered by AerisWeather